TimePST,TemperatureF,Dew PointF,Humidity,Sea Level PressureIn,VisibilityMPH,Wind Direction,Wind SpeedMPH,Gust SpeedMPH,PrecipitationIn,Events,Conditions,WindDirDegrees,DateUTC
12:04 AM,46.4,46.4,100,30.26,3.0,West,4.6,-,N/A,,Overcast,280,2012-02-09 08:04:00
12:56 AM,46.9,45.0,93,30.25,3.0,Calm,Calm,-,0.00,,Overcast,0,2012-02-09 08:56:00
1:05 AM,46.4,46.4,100,30.26,2.5,Calm,Calm,-,0.00,Rain,Light Rain,0,2012-02-09 09:05:00
1:39 AM,46.4,46.4,100,30.25,1.5,East,3.5,-,0.01,Rain,Light Rain,100,2012-02-09 09:39:00
1:53 AM,46.4,46.4,100,30.26,1.0,East,3.5,-,0.01,Rain,Light Rain,100,2012-02-09 09:53:00
1:56 AM,46.0,46.0,100,30.26,1.0,East,3.5,-,0.01,Rain,Light Rain,90,2012-02-09 09:56:00
2:02 AM,46.4,46.4,100,30.25,1.2,ENE,4.6,-,0.00,Rain,Light Rain,70,2012-02-09 10:02:00
2:07 AM,46.4,46.4,100,30.25,1.8,East,4.6,-,0.00,Rain,Light Rain,80,2012-02-09 10:07:00
2:14 AM,46.4,46.4,100,30.25,2.5,Calm,Calm,-,0.00,Rain,Light Rain,0,2012-02-09 10:14:00
2:32 AM,46.4,46.4,100,30.23,3.0,NE,4.6,-,0.00,Rain,Light Rain,40,2012-02-09 10:32:00
2:56 AM,46.9,45.0,93,30.24,3.0,NNW,4.6,-,0.00,Rain,Light Rain,340,2012-02-09 10:56:00
3:39 AM,46.4,46.4,100,30.22,2.0,Calm,Calm,-,0.02,Rain,Light Rain,0,2012-02-09 11:39:00
3:56 AM,46.9,46.0,97,30.22,3.0,Calm,Calm,-,0.03,Rain,Light Rain,0,2012-02-09 11:56:00
4:06 AM,46.4,46.4,100,30.22,2.5,NW,3.5,-,0.01,Rain,Light Rain,310,2012-02-09 12:06:00
4:53 AM,46.4,46.4,100,30.20,3.0,Calm,Calm,-,0.02,Rain,Light Rain,0,2012-02-09 12:53:00
4:56 AM,46.9,46.0,97,30.21,4.0,Calm,Calm,-,0.02,Rain,Light Rain,0,2012-02-09 12:56:00
5:29 AM,46.4,44.6,93,30.19,2.5,Calm,Calm,-,0.02,Rain,Light Rain,0,2012-02-09 13:29:00
5:42 AM,46.4,46.4,100,30.19,1.5,Calm,Calm,-,0.02,Rain,Light Rain,0,2012-02-09 13:42:00
5:49 AM,46.4,46.4,100,30.20,1.2,Calm,Calm,-,0.03,Rain,Light Rain,0,2012-02-09 13:49:00
5:56 AM,46.9,46.0,97,30.19,1.5,Calm,Calm,-,0.03,Rain,Light Rain,0,2012-02-09 13:56:00
6:10 AM,46.4,46.4,100,30.17,1.0,Calm,Calm,-,0.00,Rain,Light Rain,0,2012-02-09 14:10:00
6:24 AM,46.4,46.4,100,30.17,2.0,Calm,Calm,-,0.00,Rain,Light Rain,0,2012-02-09 14:24:00
6:38 AM,46.4,46.4,100,30.19,5.0,SW,6.9,-,0.00,,Overcast,230,2012-02-09 14:38:00
6:56 AM,46.9,46.0,97,30.19,5.0,Calm,Calm,-,0.01,Rain,Light Rain,0,2012-02-09 14:56:00
7:56 AM,46.9,46.0,97,30.19,2.0,WNW,3.5,-,0.01,,Overcast,300,2012-02-09 15:56:00
8:34 AM,48.2,46.4,93,30.20,3.0,Calm,Calm,-,N/A,,Overcast,0,2012-02-09 16:34:00
8:56 AM,48.0,46.9,96,30.21,3.0,North,3.5,-,N/A,,Overcast,360,2012-02-09 16:56:00
9:56 AM,48.9,46.9,93,30.22,7.0,NE,4.6,-,N/A,,Overcast,40,2012-02-09 17:56:00
10:56 AM,48.9,46.9,93,30.24,4.0,Calm,Calm,-,N/A,,Overcast,0,2012-02-09 18:56:00
11:56 AM,48.9,46.9,93,30.22,5.0,Calm,Calm,-,N/A,,Overcast,0,2012-02-09 19:56:00
12:56 PM,51.1,48.0,89,30.21,10.0,Calm,Calm,-,N/A,,Overcast,0,2012-02-09 20:56:00
1:56 PM,52.0,48.9,89,30.18,10.0,Calm,Calm,-,N/A,,Overcast,0,2012-02-09 21:56:00
2:56 PM,53.1,48.9,86,30.17,10.0,Calm,Calm,-,N/A,,Overcast,0,2012-02-09 22:56:00
3:56 PM,52.0,48.0,86,30.16,10.0,North,6.9,-,N/A,,Overcast,360,2012-02-09 23:56:00
4:56 PM,51.1,48.0,89,30.14,10.0,NNE,4.6,-,N/A,,Overcast,20,2012-02-10 00:56:00
5:56 PM,50.0,48.0,93,30.11,9.0,North,3.5,-,N/A,,Overcast,10,2012-02-10 01:56:00
6:56 PM,48.9,48.0,97,30.08,8.0,Calm,Calm,-,N/A,,Overcast,0,2012-02-10 02:56:00
7:56 PM,48.9,46.9,93,30.06,7.0,NW,3.5,-,N/A,,Overcast,310,2012-02-10 03:56:00
8:52 PM,48.2,44.6,87,30.04,10.0,North,4.6,-,N/A,,Overcast,360,2012-02-10 04:52:00
8:56 PM,48.0,43.0,83,30.04,10.0,North,4.6,-,N/A,,Overcast,360,2012-02-10 04:56:00
9:56 PM,48.0,44.1,86,30.04,10.0,Calm,Calm,-,N/A,,Mostly Cloudy,0,2012-02-10 05:56:00
10:10 PM,46.4,44.6,93,30.03,10.0,Calm,Calm,-,N/A,,Partly Cloudy,0,2012-02-10 06:10:00
10:56 PM,46.9,44.1,90,30.01,10.0,Variable,3.5,-,N/A,,Mostly Cloudy,0,2012-02-10 06:56:00
11:56 PM,46.0,43.0,89,30.01,10.0,NW,3.5,-,N/A,,Clear,320,2012-02-10 07:56:00